User: anonymous   Login
Location: Unspecified
(0.0000°N, 0.0000°E)
Time: 03:05:15
(UTC+00:00)
Language:

AEHF 1 (USA 214) - Orbit

View from above orbital plane
View from above orbital plane
View from above satellite
View from above satellite

Ground track
Ground track

The orbit data is extracted from the following two-line orbital elements,

1 36868U 10039A   15100.36284529 0.00000000  00000-0  00000-0 0    03
2 36868   1.7154 260.4748 0003453 161.7109 198.3163  1.00270000    03
Epoch (UTC): 10 April 2015 08:42:29
Eccentricity: 0.0003453
inclination: 1.7154°
perigee height: 35772 km
apogee height: 35801 km
right ascension of ascending node: 260.4748°
argument of perigee: 161.7109°
revolutions per day: 1.00270000
mean anomaly at epoch: 198.3163°
orbit number at epoch: 0

The dashed part of the orbit path shows where the satellite is in the earth's shadow,  

DLR